OneWeb SL0296

operational
NORAD ID: 49085 Int'l Des: 2021-075 Owner: ONEWEBN Country: UK Constellation: oneweb
LEOCIRCULARPOLARONEWEB_TYPE

About OneWeb SL0296

Description loading...

Live Position

Loading 3D Globe...

Upcoming Passes

Altitude History

Altitude vs Time

uPlot chart will show altitude changes over time

Two-Line Element Set

1 49085U 21075L 26015.98829134 .00000486 00000-0 13167-2 0 9997
2 49085 87.8924 20.8791 0001845 100.3817 259.7520 13.12446318214618
Epoch: Jan 15, 2026 • Age: 11 hours

Current Status

Altitude 1240.1 km
Velocity 7.23 km/s
Sub-Earth Point -65.57°S, 104.84°E
Launch Date Aug 21, 2021
Age 4.4 years
Type internet

Technical Details

Classification Payload
Mass 148.00 kg
Dry Mass 140.00 kg
Total Mass 148.00 kg
Length 1.30 m
Diameter 1.00 m
Span 5.00 m
Shape Trapezoid+2 pan
Manufacturer ONEWUS
Bus Type ARROW
Phase Status In Orbit
Owner/State ONEWEBN/UK

Large Constellations

Loading constellations...